| time (UTC) | temp F | wind direction | speed MPH | gust MPH | rain 1hr in | rain 24hr in | rain mn in | humidity % | barometer mb |
| 20260505192157 | 79 | 135 | 3.0 | 5.0 | 0.00 | 0.00 | 0.00 | 37 | 1008.0 |
| 20260505191656 | 80 | 135 | 1.0 | 2.0 | 0.00 | 0.00 | 0.00 | 35 | 1008.0 |
| 20260505191156 | 80 | 135 | 4.0 | 5.0 | 0.00 | 0.00 | 0.00 | 35 | 1008.0 |
| 20260505190657 | 80 | 135 | 3.0 | 4.0 | 0.00 | 0.00 | 0.00 | 34 | 1008.0 |
| 20260505190156 | 80 | 135 | 3.0 | 4.0 | 0.00 | 0.00 | 0.00 | 37 | 1008.0 |
| 20260505185657 | 79 | 135 | 2.0 | 3.0 | 0.00 | 0.00 | 0.00 | 36 | 1008.0 |
| 20260505185156 | 79 | 135 | 2.0 | 2.0 | 0.00 | 0.00 | 0.00 | 35 | 1008.0 |
| 20260505184656 | 79 | 135 | 4.0 | 5.0 | 0.00 | 0.00 | 0.00 | 34 | 1008.0 |
| 20260505184156 | 79 | 135 | 3.0 | 4.0 | 0.00 | 0.00 | 0.00 | 36 | 1009.0 |
| 20260505183657 | 79 | 135 | 2.0 | 2.0 | 0.00 | 0.00 | 0.00 | 34 | 1009.0 |
| 20260505183156 | 79 | 135 | 2.0 | 3.0 | 0.00 | 0.00 | 0.00 | 35 | 1009.0 |
| 20260505182656 | 79 | 135 | 2.0 | 4.0 | 0.00 | 0.00 | 0.00 | 35 | 1009.0 |
| 20260505182156 | 79 | 135 | 2.0 | 3.0 | 0.00 | 0.00 | 0.00 | 36 | 1009.0 |
| 20260505181656 | 78 | 135 | 2.0 | 3.0 | 0.00 | 0.00 | 0.00 | 35 | 1009.0 |
| 20260505181157 | 79 | 135 | 3.0 | 4.0 | 0.00 | 0.00 | 0.00 | 38 | 1009.0 |
| 20260505180657 | 79 | 135 | 4.0 | 5.0 | 0.00 | 0.00 | 0.00 | 37 | 1009.0 |
| 20260505180154 | 79 | 135 | 3.0 | 5.0 | 0.00 | 0.00 | 0.00 | 35 | 1009.0 |
| 20260505175658 | 79 | 135 | 3.0 | 5.0 | 0.00 | 0.00 | 0.00 | 35 | 1009.0 |
| 20260505175156 | 80 | 135 | 1.0 | 2.0 | 0.00 | 0.00 | 0.00 | 37 | 1009.0 |
| 20260505174657 | 80 | 135 | 6.0 | 7.0 | 0.00 | 0.00 | 0.00 | 35 | 1009.0 |
| 20260505174154 | 79 | 135 | 2.0 | 4.0 | 0.00 | 0.00 | 0.00 | 35 | 1009.0 |
| 20260505173657 | 78 | 135 | 3.0 | 4.0 | 0.00 | 0.00 | 0.00 | 34 | 1009.0 |
| 20260505173159 | 78 | 135 | 3.0 | 5.0 | 0.00 | 0.00 | 0.00 | 36 | 1009.0 |
| 20260505172656 | 78 | 135 | 0.0 | 1.0 | 0.00 | 0.00 | 0.00 | 36 | 1009.0 |
| 20260505172157 | 79 | 135 | 4.0 | 5.0 | 0.00 | 0.00 | 0.00 | 35 | 1009.0 |
| 20260505171657 | 78 | 113 | 3.0 | 4.0 | 0.00 | 0.00 | 0.00 | 35 | 1009.0 |
| 20260505171155 | 78 | 135 | 3.0 | 4.0 | 0.00 | 0.00 | 0.00 | 37 | 1009.0 |
| 20260505170654 | 78 | 135 | 4.0 | 5.0 | 0.00 | 0.00 | 0.00 | 37 | 1009.0 |
| 20260505170156 | 79 | 135 | 4.0 | 5.0 | 0.00 | 0.00 | 0.00 | 36 | 1009.0 |
| 20260505165657 | 79 | 135 | 2.0 | 3.0 | 0.00 | 0.00 | 0.00 | 35 | 1009.0 |
| 20260505165157 | 78 | 135 | 3.0 | 5.0 | 0.00 | 0.00 | 0.00 | 35 | 1009.0 |
| 20260505164656 | 78 | 135 | 3.0 | 4.0 | 0.00 | 0.00 | 0.00 | 36 | 1009.0 |
| 20260505164157 | 78 | 135 | 4.0 | 5.0 | 0.00 | 0.00 | 0.00 | 39 | 1009.0 |
| 20260505163657 | 79 | 135 | 3.0 | 4.0 | 0.00 | 0.00 | 0.00 | 37 | 1009.0 |
| 20260505163157 | 79 | 135 | 4.0 | 5.0 | 0.00 | 0.00 | 0.00 | 36 | 1009.0 |
| 20260505162702 | 79 | 135 | 2.0 | 2.0 | 0.00 | 0.00 | 0.00 | 38 | 1009.0 |
| 20260505162156 | 78 | 135 | 2.0 | 3.0 | 0.00 | 0.00 | 0.00 | 39 | 1010.0 |
| 20260505161656 | 78 | 135 | 3.0 | 4.0 | 0.00 | 0.00 | 0.00 | 41 | 1010.0 |
| 20260505161156 | 77 | 135 | 3.0 | 3.0 | 0.00 | 0.00 | 0.00 | 40 | 1010.0 |
| 20260505160658 | 77 | 135 | 2.0 | 2.0 | 0.00 | 0.00 | 0.00 | 41 | 1010.0 |
| 20260505160156 | 77 | 135 | 3.0 | 5.0 | 0.00 | 0.00 | 0.00 | 41 | 1010.0 |
| 20260505153158 | 76 | 135 | 1.0 | 2.0 | 0.00 | 0.00 | 0.00 | 45 | 1010.0 |
| 20260505152655 | 76 | 135 | 2.0 | 2.0 | 0.00 | 0.00 | 0.00 | 45 | 1010.0 |
| 20260505152156 | 75 | 135 | 1.0 | 2.0 | 0.00 | 0.00 | 0.00 | 45 | 1010.0 |
| 20260505151659 | 75 | 135 | 2.0 | 2.0 | 0.00 | 0.00 | 0.00 | 45 | 1010.0 |
| 20260505151157 | 75 | 135 | 1.0 | 2.0 | 0.00 | 0.00 | 0.00 | 46 | 1010.0 |
| 20260505150657 | 75 | 135 | 1.0 | 2.0 | 0.00 | 0.00 | 0.00 | 46 | 1010.0 |
| 20260505150157 | 75 | 135 | 3.0 | 3.0 | 0.00 | 0.00 | 0.00 | 47 | 1010.0 |
| 20260505140157 | 69 | 135 | 1.0 | 2.0 | 0.00 | 0.00 | 0.00 | 54 | 1010.0 |
| 20260505130156 | 63 | 135 | 3.0 | 4.0 | 0.00 | 0.00 | 0.00 | 68 | 1010.0 |
| 20260505124654 | 62 | 135 | 1.0 | 2.0 | 0.00 | 0.00 | 0.00 | 70 | 1010.0 |
| 20260505124157 | 61 | 135 | 2.0 | 2.0 | 0.00 | 0.00 | 0.00 | 70 | 1010.0 |
| 20260505123656 | 61 | 135 | 2.0 | 3.0 | 0.00 | 0.00 | 0.00 | 71 | 1010.0 |
| 20260505123156 | 61 | 135 | 0.0 | 1.0 | 0.00 | 0.00 | 0.00 | 71 | 1010.0 |
| 20260505122656 | 60 | 135 | 0.0 | 1.0 | 0.00 | 0.00 | 0.00 | 72 | 1010.0 |
| 20260505122156 | 59 | 135 | 0.0 | 0.0 | 0.00 | 0.00 | 0.00 | 73 | 1010.0 |
| 20260505121656 | 59 | 135 | 1.0 | 2.0 | 0.00 | 0.00 | 0.00 | 74 | 1010.0 |
| 20260505121154 | 59 | 135 | 0.0 | 1.0 | 0.00 | 0.00 | 0.00 | 74 | 1010.0 |
| 20260505120657 | 59 | 135 | 0.0 | 1.0 | 0.00 | 0.00 | 0.00 | 74 | 1010.0 |
| 20260505120157 | 59 | 135 | 1.0 | 2.0 | 0.00 | 0.00 | 0.00 | 74 | 1010.0 |
| 20260505115656 | 58 | 135 | 0.0 | 1.0 | 0.00 | 0.00 | 0.00 | 74 | 1010.0 |
| 20260505115156 | 58 | 135 | 0.0 | 1.0 | 0.00 | 0.00 | 0.00 | 74 | 1009.0 |
| 20260505114656 | 58 | 135 | 0.0 | 0.0 | 0.00 | 0.00 | 0.00 | 74 | 1010.0 |
| 20260505114156 | 57 | 135 | 1.0 | 2.0 | 0.00 | 0.00 | 0.00 | 75 | 1009.0 |
| 20260505113656 | 57 | 135 | 0.0 | 1.0 | 0.00 | 0.00 | 0.00 | 76 | 1009.0 |
| 20260505113157 | 56 | 135 | 1.0 | 2.0 | 0.00 | 0.00 | 0.00 | 77 | 1009.0 |
| 20260505112656 | 55 | 135 | 0.0 | 1.0 | 0.00 | 0.00 | 0.00 | 78 | 1009.0 |
| 20260505112157 | 54 | 135 | 0.0 | 1.0 | 0.00 | 0.00 | 0.00 | 80 | 1009.0 |
| 20260505111656 | 54 | 135 | 0.0 | 0.0 | 0.00 | 0.00 | 0.00 | 81 | 1009.0 |
| 20260505111157 | 54 | 135 | 1.0 | 2.0 | 0.00 | 0.00 | 0.00 | 82 | 1009.0 |
| 20260505110657 | 53 | 135 | 0.0 | 0.0 | 0.00 | 0.00 | 0.00 | 82 | 1009.0 |
| 20260505110156 | 53 | 135 | 0.0 | 0.0 | 0.00 | 0.00 | 0.00 | 83 | 1009.0 |
| 20260505102156 | 52 | 135 | 0.0 | 0.0 | 0.00 | 0.00 | 0.00 | 83 | 1009.0 |
| 20260505101656 | 52 | 135 | 0.0 | 0.0 | 0.00 | 0.00 | 0.00 | 83 | 1009.0 |
| 20260505101158 | 52 | 135 | 0.0 | 0.0 | 0.00 | 0.00 | 0.00 | 82 | 1009.0 |
| 20260505100656 | 52 | 135 | 0.0 | 0.0 | 0.00 | 0.00 | 0.00 | 81 | 1009.0 |
| 20260505100157 | 52 | 135 | 0.0 | 0.0 | 0.00 | 0.00 | 0.00 | 81 | 1009.0 |
| 20260505095654 | 53 | 135 | 0.0 | 0.0 | 0.00 | 0.00 | 0.00 | 81 | 1009.0 |
| 20260505095156 | 53 | 135 | 0.0 | 0.0 | 0.00 | 0.00 | 0.00 | 80 | 1009.0 |
| 20260505094658 | 53 | 135 | 0.0 | 1.0 | 0.00 | 0.00 | 0.00 | 79 | 1009.0 |
| 20260505094156 | 54 | 135 | 0.0 | 1.0 | 0.00 | 0.00 | 0.00 | 78 | 1009.0 |
| 20260505093654 | 54 | 135 | 0.0 | 0.0 | 0.00 | 0.00 | 0.00 | 77 | 1009.0 |
| 20260505093159 | 55 | 135 | 0.0 | 0.0 | 0.00 | 0.00 | 0.00 | 77 | 1009.0 |
| 20260505092656 | 55 | 135 | 0.0 | 0.0 | 0.00 | 0.00 | 0.00 | 76 | 1009.0 |
| 20260505092156 | 55 | 135 | 0.0 | 0.0 | 0.00 | 0.00 | 0.00 | 75 | 1009.0 |
| 20260505091657 | 55 | 135 | 0.0 | 0.0 | 0.00 | 0.00 | 0.00 | 75 | 1009.0 |
| 20260505091156 | 56 | 135 | 0.0 | 0.0 | 0.00 | 0.00 | 0.00 | 74 | 1009.0 |
| 20260505090657 | 56 | 135 | 0.0 | 0.0 | 0.00 | 0.00 | 0.00 | 74 | 1008.0 |
| 20260505090156 | 56 | 135 | 0.0 | 0.0 | 0.00 | 0.00 | 0.00 | 73 | 1009.0 |
| 20260505085655 | 56 | 135 | 0.0 | 0.0 | 0.00 | 0.00 | 0.00 | 73 | 1009.0 |
| 20260505085155 | 56 | 135 | 0.0 | 1.0 | 0.00 | 0.00 | 0.00 | 73 | 1008.0 |
| 20260505084656 | 56 | 135 | 0.0 | 1.0 | 0.00 | 0.00 | 0.00 | 73 | 1008.0 |
| 20260505084157 | 56 | 135 | 0.0 | 1.0 | 0.00 | 0.00 | 0.00 | 73 | 1008.0 |
| 20260505083655 | 56 | 135 | 0.0 | 1.0 | 0.00 | 0.00 | 0.00 | 73 | 1008.0 |
| 20260505083157 | 56 | 135 | 1.0 | 2.0 | 0.00 | 0.00 | 0.00 | 73 | 1008.0 |
| 20260505082654 | 56 | 135 | 0.0 | 0.0 | 0.00 | 0.00 | 0.00 | 73 | 1008.0 |
| 20260505082156 | 56 | 135 | 0.0 | 0.0 | 0.00 | 0.00 | 0.00 | 72 | 1008.0 |
| 20260505081656 | 56 | 135 | 0.0 | 0.0 | 0.00 | 0.00 | 0.00 | 72 | 1008.0 |
| 20260505081156 | 56 | 135 | 0.0 | 0.0 | 0.00 | 0.00 | 0.00 | 72 | 1008.0 |
| 20260505080656 | 56 | 135 | 0.0 | 0.0 | 0.00 | 0.00 | 0.00 | 73 | 1008.0 |
| 20260505080155 | 56 | 135 | 0.0 | 0.0 | 0.00 | 0.00 | 0.00 | 72 | 1008.0 |
| 20260505075657 | 56 | 135 | 0.0 | 0.0 | 0.00 | 0.00 | 0.00 | 72 | 1008.0 |
| 20260505075159 | 56 | 135 | 0.0 | 1.0 | 0.00 | 0.00 | 0.00 | 72 | 1008.0 |
| 20260505074657 | 56 | 135 | 0.0 | 0.0 | 0.00 | 0.00 | 0.00 | 72 | 1008.0 |
| 20260505074156 | 56 | 135 | 0.0 | 0.0 | 0.00 | 0.00 | 0.00 | 72 | 1008.0 |
| 20260505073656 | 56 | 135 | 0.0 | 0.0 | 0.00 | 0.00 | 0.00 | 72 | 1008.0 |
| 20260505073154 | 56 | 135 | 0.0 | 0.0 | 0.00 | 0.00 | 0.00 | 72 | 1008.0 |
| 20260505072656 | 56 | 135 | 0.0 | 0.0 | 0.00 | 0.00 | 0.00 | 72 | 1008.0 |
| 20260505072156 | 56 | 135 | 0.0 | 0.0 | 0.00 | 0.00 | 0.00 | 71 | 1008.0 |
| 20260505071656 | 56 | 135 | 0.0 | 0.0 | 0.00 | 0.00 | 0.00 | 71 | 1008.0 |
| 20260505071156 | 56 | 135 | 0.0 | 0.0 | 0.00 | 0.00 | 0.00 | 71 | 1008.0 |
| 20260505070655 | 56 | 135 | 0.0 | 1.0 | 0.00 | 0.00 | 0.00 | 71 | 1008.0 |
| 20260505070156 | 56 | 135 | 0.0 | 0.0 | 0.00 | 0.00 | 0.00 | 71 | 1008.0 |
| 20260505065655 | 56 | 135 | 0.0 | 0.0 | 0.00 | 0.00 | 0.00 | 70 | 1008.0 |
| 20260505065154 | 56 | 135 | 0.0 | 0.0 | 0.00 | 0.00 | 0.00 | 70 | 1008.0 |
| 20260505064656 | 56 | 135 | 0.0 | 0.0 | 0.00 | 0.00 | 0.00 | 70 | 1008.0 |
| 20260505064155 | 56 | 135 | 0.0 | 0.0 | 0.00 | 0.00 | 0.00 | 69 | 1008.0 |
| 20260505063656 | 56 | 135 | 1.0 | 2.0 | 0.00 | 0.00 | 0.00 | 68 | 1008.0 |
| 20260505063155 | 56 | 135 | 0.0 | 0.0 | 0.00 | 0.00 | 0.00 | 68 | 1008.0 |
| 20260505062656 | 56 | 135 | 0.0 | 0.0 | 0.00 | 0.00 | 0.00 | 67 | 1008.0 |
| 20260505062154 | 57 | 135 | 0.0 | 0.0 | 0.00 | 0.00 | 0.00 | 67 | 1008.0 |
| 20260505061656 | 57 | 135 | 0.0 | 0.0 | 0.00 | 0.00 | 0.00 | 66 | 1008.0 |
| 20260505061156 | 57 | 135 | 0.0 | 0.0 | 0.00 | 0.00 | 0.00 | 65 | 1008.0 |
| 20260505060655 | 57 | 135 | 0.0 | 0.0 | 0.00 | 0.00 | 0.00 | 64 | 1008.0 |
| 20260505060155 | 58 | 135 | 0.0 | 0.0 | 0.00 | 0.00 | 0.00 | 64 | 1008.0 |
| 20260505055654 | 58 | 135 | 0.0 | 0.0 | 0.00 | 0.00 | 0.00 | 64 | 1008.0 |
| 20260505055154 | 58 | 135 | 0.0 | 0.0 | 0.00 | 0.00 | 0.00 | 62 | 1008.0 |
| 20260505054655 | 58 | 135 | 0.0 | 0.0 | 0.00 | 0.00 | 0.00 | 61 | 1008.0 |
| 20260505054154 | 59 | 135 | 0.0 | 0.0 | 0.00 | 0.00 | 0.00 | 60 | 1008.0 |
| 20260505053655 | 59 | 135 | 0.0 | 0.0 | 0.00 | 0.00 | 0.00 | 60 | 1008.0 |
| 20260505053155 | 59 | 135 | 0.0 | 0.0 | 0.00 | 0.00 | 0.00 | 59 | 1008.0 |
| 20260505052654 | 59 | 135 | 0.0 | 0.0 | 0.00 | 0.00 | 0.00 | 58 | 1008.0 |
| 20260505052155 | 60 | 135 | 0.0 | 0.0 | 0.00 | 0.00 | 0.00 | 57 | 1008.0 |
| 20260505051655 | 60 | 135 | 0.0 | 0.0 | 0.00 | 0.00 | 0.00 | 57 | 1008.0 |
| 20260505051154 | 60 | 135 | 0.0 | 0.0 | 0.00 | 0.00 | 0.00 | 57 | 1008.0 |
| 20260505050655 | 60 | 135 | 0.0 | 1.0 | 0.00 | 0.00 | 0.00 | 57 | 1008.0 |
| 20260505050155 | 60 | 135 | 0.0 | 0.0 | 0.00 | 0.00 | 0.00 | 56 | 1008.0 |
| 20260505041654 | 59 | 135 | 0.0 | 0.0 | 0.00 | 0.00 | 0.00 | 56 | 1008.0 |
| 20260505041155 | 59 | 135 | 0.0 | 0.0 | 0.00 | 0.00 | 0.00 | 56 | 1008.0 |
| 20260505040654 | 59 | 135 | 0.0 | 0.0 | 0.00 | 0.00 | 0.00 | 55 | 1008.0 |
| 20260505040155 | 59 | 135 | 0.0 | 0.0 | 0.00 | 0.00 | 0.00 | 55 | 1008.0 |
| 20260505035654 | 59 | 135 | 0.0 | 0.0 | 0.00 | 0.00 | 0.00 | 54 | 1008.0 |
| 20260505035156 | 60 | 135 | 0.0 | 0.0 | 0.00 | 0.00 | 0.00 | 53 | 1008.0 |
| 20260505034654 | 60 | 135 | 0.0 | 0.0 | 0.00 | 0.00 | 0.00 | 53 | 1008.0 |
| 20260505034154 | 60 | 135 | 0.0 | 0.0 | 0.00 | 0.00 | 0.00 | 52 | 1008.0 |
| 20260505033654 | 60 | 135 | 0.0 | 0.0 | 0.00 | 0.00 | 0.00 | 51 | 1008.0 |
| 20260505033154 | 60 | 135 | 0.0 | 0.0 | 0.00 | 0.00 | 0.00 | 51 | 1008.0 |
| 20260505032654 | 60 | 135 | 0.0 | 0.0 | 0.00 | 0.00 | 0.00 | 50 | 1008.0 |
| 20260505032154 | 60 | 135 | 0.0 | 0.0 | 0.00 | 0.00 | 0.00 | 51 | 1008.0 |
| 20260505031655 | 61 | 135 | 0.0 | 0.0 | 0.00 | 0.00 | 0.00 | 50 | 1008.0 |
| 20260505031154 | 61 | 135 | 0.0 | 0.0 | 0.00 | 0.00 | 0.00 | 50 | 1008.0 |
| 20260505030655 | 61 | 135 | 0.0 | 0.0 | 0.00 | 0.00 | 0.00 | 49 | 1008.0 |
| 20260505030154 | 61 | 135 | 0.0 | 0.0 | 0.00 | 0.00 | 0.00 | 48 | 1008.0 |
| 20260505025654 | 62 | 135 | 0.0 | 0.0 | 0.00 | 0.00 | 0.00 | 48 | 1008.0 |
| 20260505025154 | 62 | 135 | 0.0 | 0.0 | 0.00 | 0.00 | 0.00 | 47 | 1008.0 |
| 20260505024654 | 62 | 135 | 0.0 | 0.0 | 0.00 | 0.00 | 0.00 | 46 | 1008.0 |
| 20260505024155 | 62 | 135 | 0.0 | 0.0 | 0.00 | 0.00 | 0.00 | 46 | 1008.0 |
| 20260505023654 | 62 | 135 | 0.0 | 0.0 | 0.00 | 0.00 | 0.00 | 46 | 1008.0 |
| 20260505023155 | 63 | 135 | 0.0 | 0.0 | 0.00 | 0.00 | 0.00 | 46 | 1008.0 |
| 20260505022654 | 63 | 135 | 0.0 | 0.0 | 0.00 | 0.00 | 0.00 | 47 | 1008.0 |
| 20260505022154 | 63 | 135 | 0.0 | 0.0 | 0.00 | 0.00 | 0.00 | 46 | 1008.0 |
| 20260505021654 | 63 | 135 | 0.0 | 0.0 | 0.00 | 0.00 | 0.00 | 45 | 1008.0 |
| 20260505021154 | 63 | 135 | 0.0 | 0.0 | 0.00 | 0.00 | 0.00 | 46 | 1008.0 |
| 20260505020654 | 63 | 135 | 0.0 | 0.0 | 0.00 | 0.00 | 0.00 | 45 | 1008.0 |
| 20260505020156 | 63 | 135 | 0.0 | 0.0 | 0.00 | 0.00 | 0.00 | 45 | 1008.0 |
| 20260505015658 | 63 | 135 | 0.0 | 0.0 | 0.00 | 0.00 | 0.00 | 46 | 1008.0 |
| 20260505015154 | 63 | 135 | 0.0 | 0.0 | 0.00 | 0.00 | 0.00 | 47 | 1008.0 |
| 20260505014654 | 63 | 135 | 0.0 | 0.0 | 0.00 | 0.00 | 0.00 | 48 | 1008.0 |
| 20260505014154 | 63 | 135 | 0.0 | 0.0 | 0.00 | 0.00 | 0.00 | 47 | 1008.0 |
| 20260505013654 | 63 | 135 | 0.0 | 0.0 | 0.00 | 0.00 | 0.00 | 47 | 1008.0 |
| 20260505013154 | 63 | 135 | 0.0 | 0.0 | 0.00 | 0.00 | 0.00 | 47 | 1008.0 |
| 20260505012654 | 63 | 135 | 0.0 | 1.0 | 0.00 | 0.00 | 0.00 | 47 | 1007.0 |
| 20260505012154 | 63 | 135 | 0.0 | 0.0 | 0.00 | 0.00 | 0.00 | 47 | 1007.0 |
| 20260505011655 | 64 | 135 | 0.0 | 0.0 | 0.00 | 0.00 | 0.00 | 49 | 1007.0 |
| 20260505011155 | 64 | 135 | 0.0 | 0.0 | 0.00 | 0.00 | 0.00 | 50 | 1007.0 |
| 20260505010654 | 64 | 135 | 0.0 | 0.0 | 0.00 | 0.00 | 0.00 | 46 | 1007.0 |
| 20260505010154 | 64 | 135 | 0.0 | 0.0 | 0.00 | 0.00 | 0.00 | 45 | 1007.0 |
| 20260505005655 | 65 | 135 | 0.0 | 0.0 | 0.00 | 0.00 | 0.00 | 44 | 1007.0 |
| 20260505005154 | 65 | 135 | 0.0 | 0.0 | 0.00 | 0.00 | 0.00 | 47 | 1007.0 |
| 20260505004655 | 65 | 135 | 0.0 | 0.0 | 0.00 | 0.00 | 0.00 | 45 | 1007.0 |
| 20260505004154 | 66 | 135 | 0.0 | 0.0 | 0.00 | 0.00 | 0.00 | 45 | 1007.0 |
| 20260505003654 | 66 | 135 | 0.0 | 1.0 | 0.00 | 0.00 | 0.00 | 43 | 1007.0 |
| 20260505003154 | 67 | 135 | 0.0 | 0.0 | 0.00 | 0.00 | 0.00 | 44 | 1007.0 |
| 20260505002655 | 67 | 135 | 0.0 | 0.0 | 0.00 | 0.00 | 0.00 | 42 | 1007.0 |
| 20260505002155 | 68 | 135 | 0.0 | 0.0 | 0.00 | 0.00 | 0.00 | 42 | 1007.0 |
| 20260505001655 | 69 | 135 | 0.0 | 0.0 | 0.00 | 0.00 | 0.00 | 42 | 1007.0 |
| 20260505001154 | 69 | 135 | 0.0 | 0.0 | 0.00 | 0.00 | 0.00 | 41 | 1007.0 |
| 20260505000655 | 70 | 135 | 0.0 | 0.0 | 0.00 | 0.00 | 0.00 | 39 | 1007.0 |
| 20260505000154 | 70 | 135 | 0.0 | 0.0 | 0.00 | 0.00 | 0.00 | 39 | 1007.0 |
| 20260504235655 | 71 | 135 | 0.0 | 0.0 | 0.00 | 0.00 | 0.00 | 40 | 1007.0 |
| 20260504235154 | 71 | 135 | 0.0 | 0.0 | 0.00 | 0.00 | 0.00 | 39 | 1007.0 |
| 20260504234655 | 72 | 135 | 0.0 | 0.0 | 0.00 | 0.00 | 0.00 | 38 | 1007.0 |
| 20260504234155 | 72 | 135 | 0.0 | 1.0 | 0.00 | 0.00 | 0.00 | 38 | 1007.0 |
| 20260504233655 | 73 | 135 | 0.0 | 0.0 | 0.00 | 0.00 | 0.00 | 37 | 1007.0 |
| 20260504233154 | 73 | 135 | 0.0 | 0.0 | 0.00 | 0.00 | 0.00 | 36 | 1007.0 |
| 20260504232654 | 73 | 135 | 0.0 | 1.0 | 0.00 | 0.00 | 0.00 | 35 | 1007.0 |
| 20260504232155 | 74 | 135 | 0.0 | 0.0 | 0.00 | 0.00 | 0.00 | 37 | 1007.0 |
| 20260504231656 | 74 | 135 | 2.0 | 2.0 | 0.00 | 0.00 | 0.00 | 35 | 1007.0 |
| 20260504231156 | 74 | 135 | 1.0 | 2.0 | 0.00 | 0.00 | 0.00 | 35 | 1007.0 |
| 20260504230654 | 74 | 135 | 0.0 | 0.0 | 0.00 | 0.00 | 0.00 | 36 | 1007.0 |
| 20260504230155 | 75 | 135 | 0.0 | 1.0 | 0.00 | 0.00 | 0.00 | 35 | 1007.0 |
| 20260504225655 | 75 | 135 | 1.0 | 2.0 | 0.00 | 0.00 | 0.00 | 34 | 1007.0 |
| 20260504225204 | 75 | 135 | 0.0 | 1.0 | 0.00 | 0.00 | 0.00 | 34 | 1007.0 |
| 20260504224654 | 75 | 135 | 0.0 | 1.0 | 0.00 | 0.00 | 0.00 | 34 | 1007.0 |
| 20260504224154 | 75 | 135 | 0.0 | 1.0 | 0.00 | 0.00 | 0.00 | 35 | 1007.0 |
| 20260504223655 | 75 | 135 | 1.0 | 2.0 | 0.00 | 0.00 | 0.00 | 34 | 1007.0 |
| 20260504223154 | 76 | 135 | 1.0 | 2.0 | 0.00 | 0.00 | 0.00 | 34 | 1006.0 |
| 20260504222655 | 76 | 135 | 1.0 | 2.0 | 0.00 | 0.00 | 0.00 | 33 | 1007.0 |
| 20260504222155 | 76 | 135 | 0.0 | 1.0 | 0.00 | 0.00 | 0.00 | 35 | 1007.0 |
| 20260504221654 | 76 | 135 | 0.0 | 1.0 | 0.00 | 0.00 | 0.00 | 34 | 1007.0 |
| 20260504221155 | 76 | 135 | 0.0 | 1.0 | 0.00 | 0.00 | 0.00 | 34 | 1006.0 |
| 20260504220654 | 76 | 135 | 1.0 | 2.0 | 0.00 | 0.00 | 0.00 | 35 | 1007.0 |
| 20260504220157 | 76 | 135 | 2.0 | 2.0 | 0.00 | 0.00 | 0.00 | 35 | 1007.0 |
| 20260504215655 | 76 | 135 | 1.0 | 2.0 | 0.00 | 0.00 | 0.00 | 32 | 1007.0 |
| 20260504215156 | 76 | 135 | 0.0 | 1.0 | 0.00 | 0.00 | 0.00 | 34 | 1007.0 |
| 20260504214655 | 77 | 135 | 2.0 | 2.0 | 0.00 | 0.00 | 0.00 | 33 | 1007.0 |
| 20260504214155 | 77 | 135 | 2.0 | 3.0 | 0.00 | 0.00 | 0.00 | 34 | 1007.0 |
| 20260504213655 | 77 | 135 | 2.0 | 3.0 | 0.00 | 0.00 | 0.00 | 32 | 1007.0 |
| 20260504213157 | 77 | 135 | 2.0 | 2.0 | 0.00 | 0.00 | 0.00 | 32 | 1007.0 |
| 20260504212657 | 77 | 135 | 3.0 | 5.0 | 0.00 | 0.00 | 0.00 | 33 | 1006.0 |
| 20260504212155 | 77 | 135 | 0.0 | 1.0 | 0.00 | 0.00 | 0.00 | 33 | 1007.0 |
| 20260504211656 | 77 | 135 | 2.0 | 3.0 | 0.00 | 0.00 | 0.00 | 32 | 1007.0 |
| 20260504211156 | 77 | 135 | 2.0 | 3.0 | 0.00 | 0.00 | 0.00 | 32 | 1007.0 |
| 20260504210656 | 77 | 135 | 2.0 | 3.0 | 0.00 | 0.00 | 0.00 | 33 | 1007.0 |
| 20260504210154 | 77 | 135 | 2.0 | 3.0 | 0.00 | 0.00 | 0.00 | 33 | 1007.0 |
| 20260504205655 | 77 | 135 | 2.0 | 2.0 | 0.00 | 0.00 | 0.00 | 32 | 1007.0 |
| 20260504205156 | 78 | 135 | 2.0 | 2.0 | 0.00 | 0.00 | 0.00 | 33 | 1007.0 |
| 20260504204656 | 78 | 135 | 0.0 | 1.0 | 0.00 | 0.00 | 0.00 | 34 | 1007.0 |
| 20260504204155 | 78 | 135 | 2.0 | 2.0 | 0.00 | 0.00 | 0.00 | 32 | 1007.0 |
| 20260504203655 | 78 | 135 | 2.0 | 2.0 | 0.00 | 0.00 | 0.00 | 35 | 1007.0 |
| 20260504203157 | 78 | 135 | 0.0 | 1.0 | 0.00 | 0.00 | 0.00 | 32 | 1007.0 |
| 20260504202656 | 78 | 135 | 0.0 | 1.0 | 0.00 | 0.00 | 0.00 | 34 | 1007.0 |
| 20260504202156 | 78 | 113 | 1.0 | 2.0 | 0.00 | 0.00 | 0.00 | 33 | 1007.0 |
| 20260504201658 | 78 | 135 | 1.0 | 2.0 | 0.00 | 0.00 | 0.00 | 34 | 1007.0 |
| 20260504201155 | 78 | 135 | 1.0 | 2.0 | 0.00 | 0.00 | 0.00 | 34 | 1007.0 |
| 20260504200658 | 78 | 135 | 2.0 | 2.0 | 0.00 | 0.00 | 0.00 | 33 | 1007.0 |
| 20260504200155 | 77 | 135 | 2.0 | 2.0 | 0.00 | 0.00 | 0.00 | 33 | 1007.0 |
| 20260504195654 | 77 | 135 | 1.0 | 2.0 | 0.00 | 0.00 | 0.00 | 35 | 1007.0 |
| 20260504195156 | 77 | 135 | 4.0 | 5.0 | 0.00 | 0.00 | 0.00 | 33 | 1007.0 |
| 20260504194657 | 78 | 135 | 2.0 | 3.0 | 0.00 | 0.00 | 0.00 | 34 | 1007.0 |
| 20260504194156 | 78 | 135 | 3.0 | 3.0 | 0.00 | 0.00 | 0.00 | 34 | 1007.0 |
| 20260504193655 | 78 | 135 | 0.0 | 0.0 | 0.00 | 0.00 | 0.00 | 33 | 1007.0 |
| 20260504193156 | 78 | 135 | 3.0 | 5.0 | 0.00 | 0.00 | 0.00 | 32 | 1007.0 |
| 20260504192658 | 79 | 135 | 2.0 | 3.0 | 0.00 | 0.00 | 0.00 | 32 | 1007.0 |